User: anonymous   Login
Location: Zapote
(9.9191°N, 84.0597°W)
Time: 03:09:55
(UTC-06:00)
Language:

ISS - Orbit

View from above orbital plane
View from above orbital plane
View from above satellite
View from above satellite

Ground track
Ground track

The orbit data is extracted from the following two-line orbital elements,

1 25544U 98067A   21135.19891203  .00001788  00000-0  40596-4 0  9997
2 25544  51.6434 145.8883 0003113   3.7625  90.9322 15.49007115283486
Epoch (UTC): 15 May 2021 04:46:25
Eccentricity: 0.0003113
inclination: 51.6434°
perigee height: 417 km
apogee height: 422 km
right ascension of ascending node: 145.8883°
argument of perigee: 3.7625°
revolutions per day: 15.49007115
mean anomaly at epoch: 90.9322°
orbit number at epoch: 28348

The dashed part of the orbit path shows where the satellite is in the earth's shadow,  

DLR